EUTELSAT KONNECT VHTS

Last updated on Sun Jun 21 2026 00:03:08 GMT+0000 (Coordinated Universal Time)

1 53765U 22110A 26171.03604377 .00000012 00000+0 00000+0 0 9990 2 53765 0.0641 99.9422 0002365 345.5386 198.4343 1.00272019 6868
UTC large
Height (km)
Speed (km/s)
/
Latitude / Longitude
Inclination (degrees)
Orbital Period (minutes)
Azimuth
Elevation
Range (km)
Doppler Factor

Next 0 passes for location: London (51.5072 / 0.1276)

No passes found over London.
EUTELSAT KONNECT VHTS